星链-36759(STARLINK-36759)

导读

STARLINK-36759(NORAD编号68771)是SpaceX星链(Starlink)互联网星座中的一颗卫星,属于星链低轨通信卫星组网的组成部分,主要为全球提供高速低延迟互联网接入服务。星链卫星多部署在近地轨道,该卫星运行周期约90余分钟,依托可展开的相控阵天线和太阳能供电实现通信功能。作为Starlink批量发射的卫星之一,它承担着拓展全球网络覆盖、补充星座容量的任务,服务于偏远地区网络接入、移动场景互联等应用需求。

基本信息
目录编号:
68771
目录名称:
STARLINK-36759
国际标识:
2026-086F
轨道中心:
EARTH
卫星名称:
星链-36759
卫星全名:
星链-36759(STARLINK-36759)
卫星状态:
在轨 (已飞行147 天)
发射日期:
2026-04-19 UTC
国别 :
美国 (US)
星等 :
--
该卫星已列入 空间交会检测服务 Space Conjunction Data Service (SCDS) ,当前飞行风险评估等级: 无高风险
轨道信息
数据来源 国际轨道数据
星历时间: 2026-09-13T09:42:46+0800
8小时前
查看轨道信息
半长轴: 6843.694km
偏心率: 0.0001172
轨道倾角: 97.284°
近地点辐角 85.986°
升交点赤经 291.562°
平近点角 274.152°
近地点: 464.754km
远地点: 466.36km
周期: 93.906分钟
每日圈数: 15.334404
详细信息
固有亮度:
5
最大亮度:
2.5
卫星平台:
Starlink V1.0
覆盖范围:
全球
运营商:
太空探索技术公司
运营商所在国:
美国
制造商(研发单位):
太空探索技术公司
制造商所在国:
美国
使用方式:
暂无
卫星简介
Starlink 计划是 SpaceX 推出的全球卫星互联网项目,通过发射低轨道卫星,为全球尤其是偏远地区提供高速、低延迟的互联网服务。自 2019 年起,Starlink 已部署数千颗卫星,旨在缩小全球数字鸿沟,推动互联网普及。该项目还为军事、航空等行业提供通信支持,带来广泛经济效益。
2D轨道图
3D轨道图
轨道高度分析图
轨道倾角分析图
轨道综合分析图
查看轨道综合分析图
交会数据列表
事件ID 空间交会对象 最接近时刻(TCA) 交会距离 交会风险概率(CRP) 交会风险指数(CRI) 操作
CDM_260912-230601-936206-877122
2026-09-12T
23:06:06+0000
1.025 km
极远距离
2.40627E-5 中风险 0.63
CDM_260915-121204-973206-877121
2026-09-15T
12:12:48+0000
2.683 km
极远距离
1.280144E-6 低风险 0.37
CDM_260913-101804-869606-877121
2026-09-13T
10:18:41+0000
2.328 km
极远距离
1.148522E-6 低风险 0.36
CDM_260915-134804-810406-877121
2026-09-15T
13:48:39+0000
2.833 km
极远距离
1.049778E-6 低风险 0.35
与全量物体交会距离演化趋势
与全量物体交会风险概率演化趋势